Regional Weather Roundup
Issued by NWS New Orleans/Baton Rouge, LA

Home | Current Version | Previous Version | Graphics & Text | Print | Product List | Glossary On
Versions: 1 2 3 4 5 6 7 8 9 10 11 12 13 14 15 16 17 18 19 20 21 22 23 24 25 26 27 28 29 30 31 32 33 34 35 36 37 38 39 40 41 42 43 44 45 46 47 48 49 50
300
ASUS44 KLIX 271610
RWRLIX
NEW ORLEANS REGIONAL WEATHER ROUNDUP
NATIONAL WEATHER SERVICE NEW ORLEANS LA
1000 AM CST TUE JAN 27 2015

NOTE: "FAIR" INDICATES FEW OR NO CLOUDS BELOW 12,000 FEET WITH NO
      SIGNIFICANT WEATHER AND/OR OBSTRUCTIONS TO VISIBILITY.
      SKY/WX - SKY CONDITION AND SIGNIFICANT WEATHER.
      TMP - AIR TEMPERATURE.     DP    - DEWPOINT TEMPERATURE.
      RH  - RELATIVE HUMIDITY.   PRES  - PRESSURE.
      HI  - HEAT INDEX.          WCI   - WIND CHILL INDEX.

*  THESE STATIONS ARE NOT NWS OR FAA STATIONS AND ARE NOT UNDER
   NWS QUALITY CONTROL.

LAZ038-040-048-061>063-065>067-069-271700-
SOUTHEAST LOUISIANA

CITY           SKY/WX    TMP DP  RH WIND       PRES   REMARKS
N.O. AUDUBON   NOT AVBL
N.O. INTL ARPT MOSUNNY   61  41  47 NW8       30.15R
N.O. LAKEFRONT SUNNY     57  46  66 W7        30.15R
N.O. DOWNTOWN*   N/A     59  39  47 N7        30.15R
SLIDELL        SUNNY     62  41  46 N6        30.14R
BATON ROUGE    SUNNY     61  40  45 N6        30.15R
BOOTHVILLE     SUNNY     60  45  57 NW14      30.14R
BELLE CHASSE   MOSUNNY   63  40  42 N7        30.14R
BOGALUSA*        N/A     61  41  47 N9        30.15R
GALLIANO*      SUNNY     64  47  53 MISG      30.15R
NEW ROADS*       N/A     56  40  55 CALM      30.16R
GONZALES*        N/A     60  43  52 NW8       30.15R
HAMMOND*       SUNNY     61  39  44 N8        30.15R
HOUMA*         SUNNY     63  46  55 NW5       30.15R
PORT FOURCHON* SUNNY     61  50  67 NW10      30.18R

$$

MSZ070-080>082-271700-
SOUTHERN MISSISSIPPI

CITY           SKY/WX    TMP DP  RH WIND       PRES   REMARKS
MCCOMB           N/A     60  39  45 N9        30.14R
GULFPORT       SUNNY     60  38  43 N12       30.12R
BILOXI         SUNNY     59  40  47 N9        30.12R
PASCAGOULA     SUNNY     60  38  43 N10G20    30.11R
STENNIS ARPT*  SUNNY     55  37  50 NW7       30.14R

$$

COASTAL OBSERVATIONS
LAKE AND NEARSHORE STATIONS

STATION/POSITION TIME  TEMP    WIND        PRES    WAVE
                       AIR SEA DIR/SP/G            HT/PER
                 (UTC) (F)     (DEG/KT/KT) (MB)    (FT/S)
PASCAGOULA       1600   58     330/  7/ 11 1019.2
WAVELAND YACHT   1600   55     340/  8/ 10 1019.4
GRAND ISLE       1600   58 55  310/  8/  9 1021.1
SOUTHWEST PASS   1600   60 45  310/ 16/ 18 1021.0
NEW CANAL        1600   55 52  290/  2/  3 1021.1
SHELL BEACH      1600   54 52  320/  8/  9 1020.5

OFFSHORE STATIONS

STATION/POSITION TIME  TEMP    WIND        PRES    WAVE
                       AIR SEA DIR/SP/G            HT/PER
                 (UTC) (F)     (DEG/KT/KT) (MB)    (FT/S)
64 S DAUPHIN ISL 1451   61 70  320/ 19/ 25 1020.0    5/ 5

$$




USA.gov is the U.S. government's official web portal to all federal, state and local government web resources and services.